Regional Weather Roundup
Issued by NWS Cleveland, OH

Home | Current Version | Previous Version | Graphics & Text | Print | Product List | Glossary On
Versions: 1 2 3 4 5 6 7 8 9 10 11 12 13 14 15 16 17 18 19 20 21 22 23 24 25 26 27 28 29 30 31 32 33 34 35 36 37 38 39 40 41 42 43 44 45 46 47 48 49 50
000
ASUS41 KCLE 182012
RWRCLE
OHIO REGIONAL WEATHER ROUNDUP
NATIONAL WEATHER SERVICE WILMINGTON, OH
300 PM EST WED JAN 18 2017

NOTE: "FAIR" INDICATES FEW OR NO CLOUDS BELOW 12,000 FEET WITH NO
SIGNIFICANT WEATHER AND/OR OBSTRUCTIONS TO VISIBILITY.

OHZ001>008-015>018-024>027-034-035-043-044-182100-
   NORTHWEST OHIO

CITY           SKY/WX    TMP DP  RH WIND       PRES   REMARKS
DEFIANCE       CLOUDY    36  33  89 SW12      30.09F
FINDLAY        CLOUDY    39  34  82 SW13      30.08F
TOLEDO EXPRESS CLOUDY    39  37  92 W12       30.06F
TOLEDO EXEC    CLOUDY    40  37  89 SW13      30.07F
LIMA           CLOUDY    37  34  89 SW15      30.10F
$$

OHZ009>014-019>023-028>033-038-089-182100-
   NORTHEAST OHIO

CITY           SKY/WX    TMP DP  RH WIND       PRES   REMARKS
CLE-HOPKINS    CLOUDY    39  36  89 SW10      30.09F FOG
CLE-LAKEFRONT  CLOUDY    40  37  89 SW13      30.06F
CUY CO. ARPT   CLOUDY    39  37  93 W12       30.06F
LORAIN-ELYRIA  CLOUDY    39  34  82 W12       30.07F
ASHTABULA      CLOUDY    36  36 100 W14       30.06S FOG
AKRON-CANTON   CLOUDY    39  34  82 W12       30.07F
WOOSTER        CLOUDY    38  35  89 W9        30.08F
MANSFIELD      CLOUDY    37  37 100 SW8       30.07F
YOUNGSTOWN     DRIZZLE   38  35  89 W10       30.06F
$$

OHZ042-051>053-060>062-070>072-077>081-182100-
  SOUTHWEST OHIO

CITY           SKY/WX    TMP DP  RH WIND       PRES   REMARKS
CINC-COVINGTON CLOUDY    41  36  82 SW8       30.15F
CINC-LUNKEN    CLOUDY    43  36  76 W5        30.18F
HAMILTON       CLOUDY    42  37  82 W6        30.17F
DAYTON         DRIZZLE   37  35  92 W10       30.15F FOG
WRIGHT-PAT AFB CLOUDY    39  38  96 SW9       30.15S
DAYTON GENERAL CLOUDY    38  36  92 W8        30.15S FOG
WILMINGTON     CLOUDY    38  35  89 W13       30.15S
$$

OHZ036-037-039>041-045>050-054>059-063>069-073>076-082>088-182100-
  CENTRAL AND SOUTHEAST OHIO

CITY           SKY/WX    TMP DP  RH WIND       PRES   REMARKS
COLUMBUS       CLOUDY    41  34  76 SW10      30.11F
OSU AIRPORT    CLOUDY    39  35  86 W9        30.12F
BOLTON FIELD   CLOUDY    37  36  93 W10       30.13F
RICKENBACK AFB NOT AVBL
NEWARK         CLOUDY    41  34  76 W9        30.11F
MARION         CLOUDY    38  35  89 W9        30.10F FOG
LANCASTER      CLOUDY    41  35  79 SW10      30.13F
ZANESVILLE     CLOUDY    41  34  76 W8        30.11F
NEW PHILLY     CLOUDY    41  35  79 W5        30.10F
$$




USA.gov is the U.S. government's official web portal to all federal, state and local government web resources and services.